Flag for Canada Weather past 2 weeks in Drummondville, Quebec, Canada

Now
57 °F

Cool.


Feels Like: 57 °F
Forecast: 56 / 77 °F
Wind: 1 mph from Southeast

Location: Nicolet

Current Time: Aug 1, 2014 at 6:29:24 AM

Latest Report: Aug 1, 2014 at 6:00 AM


Visibility: N/A

Pressure: 30.10 "Hg

Humidity: 96%

Dew point: 56 °F

Location of DrummondvilleLocation

Historic Weather in Drummondville — Graph

°F

Drummondville temperature yesterday

Maximum temperature yesterday: 70 °F (at 12:00 PM)
Minimum temperature yesterday: 56 °F (at 10:00 PM)
Average temperature yesterday: 61 °F

Past Weeks' High & Low Weather Summary

 TemperatureHumidityPressure
High82 °F (Jul 21, 5:00 PM)100% (Jul 28, 4:00 PM)30.27 "Hg (Jul 28, 4:00 PM)
Low52 °F (Jul 30, 5:00 AM)46% (Jul 24, 4:00 PM)29.57 "Hg (Jul 27, 7:00 PM)
Average66 °F78%29.91 "Hg
* Reported Jul 17 6:00 AM — Aug 1 5:00 AM, Drummondville, Weather by CustomWeather, © 2014

Note: Actual official high and low records may vary slightly from our data, if they occured in-between our weather recording intervals... More about our weather records

Advertising

Drummondville weather history for previous 24 hours

 ConditionsComfort  
Time TempWeatherWind HumidityBarometerVisibility
5:00 AM
Aug 1
57 °FCool.3 mph95%30.09 "HgN/A
4:00 AM57 °FCool.2 mph95%30.07 "HgN/A
3:00 AM56 °FCool.5 mph98%30.06 "HgN/A
2:00 AM56 °FCool.3 mph100%30.06 "HgN/A
1:00 AM59 °FCool.3 mph93%30.07 "HgN/A
12:00 AM59 °FCool.3 mph92%30.07 "HgN/A
11:00 PM
Jul 31
59 °FCool.3 mph95%30.06 "HgN/A
10:00 PM56 °FCool.2 mph100%30.05 "HgN/A
9:00 PM59 °FCool.2 mph94%30.04 "HgN/A
4:00 PM61 °FCool.9 mph85%29.99 "HgN/A
3:00 PM60 °FCool.9 mph91%29.97 "HgN/A
12:00 PM70 °FMild.3 mph75%30.00 "HgN/A
11:00 AM67 °FMild.3 mph80%30.01 "HgN/A
10:00 AM66 °FMild.1 mph83%30.02 "HgN/A
9:00 AM64 °FMild.2 mph87%30.01 "HgN/A
8:00 AM63 °FMild.5 mph89%30.01 "HgN/A
Weather by CustomWeather, © 2014

See weather overviewHow to use our weather pages